STARLINK-30434, 57875

Orbit data source: Space-Track

STARLINK-30434, 57875 is a payload satellite owned by SpaceX/Seattle (US) in LEO that was launched on Sat, 16 Sep 2023 UTC via an FALCON 9 launch vehicle from the Air Force Eastern Test Range (AFETR). Payload-class satellites include a variety of spacecraft equipped with specific instruments for various scientific and technological missions. These include communications satellites like Starlink; space stations such as the ISS; scientific satellites like the Hubble; Earth observation satellites from companies like Planet Labs, Umbra, and HawkEye 360; GPS; miniature CubeSats for education and research; and military/defense satellites.

Loading next visibility...
Identifier
57875, 2023-144M
Orbit
LEO
Country
Flag of USUS
Related business
Manufacturer
SpaceX/Seattle
Mission
Operational Commercial Communications
Bus & Motor
STARLINK V2M, Unknown motor
Mass
730 kg wet, ~700 kg dry
Launch date (UTC)
2023-09-16 (2 years ago)
Launch vehicle
FALCON 9
Launch site
Air Force Eastern Test Range (AFETR)
Object type
Payload
Rocket body
Debris
Shape & HBR
Box + 2 Pan, 17.7 m
Radar Cross Section
33.884 m², Large (>1 m²)

Expand to show TLE details & history
Last TLE update: 19 hours ago

TLE from 19 hours ago
0 STARLINK-30434
1 57875U 23144M   25348.82399908 -.00000704  00000-0 -37003-4 0  9996
2 57875  43.0071  28.7008 0002418 280.1884  79.8686 15.02526229124858
Epoch: 2025-12-14T19:46Z
TLE epoch observation values (Epoch: 2025-12-14T19:46:33.520Z)
Latitude
0.00001°
Longitude
8.32976°
Altitude
558.594 km
Speed
7.584 km/s
True Right ascension
01h 54m 48s
True Declination
0° 00' 00"
Sunlit
Object was in full shadow at epoch
Visualization orbit readout
Latitude
Unknown
Longitude
Unknown
Altitude
Unknown
Speed
Unknown
Apparent Right ascension
Unknown
Apparent Declination
Unknown
Sunlit
N/A
Visualization observer readout
Local Sidereal Time
13:24:48
Azimuth
Unknown
Elevation
Unknown
Doppler factor
Unknown
Orbital elements
Apogee altitude
562.71 km
Perigee altitude
559.354 km
Semi-major axis
6,939.169 km
Eccentricity
0.00024
Inclination
43.0071°
RAAN
28.7008°
Arg. of periapsis
280.1884°
True anomaly
79.89588°
Mean anomaly
79.8686°
Eccentric anomaly
79.88224°
Mean motion
3.75476 °/min
Orbital period
95.88 mins
BSTAR
-0.000037003
Loading maneuver chart data...
Computing Atmospheric mass density...
Loading historical data...
Loading historical data...
Loading historical data...
Loading historical data...
Loading historical data...
Loading historical data...
Loading historical data...

Documentation

Showing up to 5 results
|